Home   Weather   Caracas   Past weeks
Flag for Venezuela

Past Weather in Caracas, Venezuela — Yesterday and Last 2 Weeks

Now
77 °F

Passing clouds.


Feels Like: 78 °F
Forecast: N/A
Wind: 3 mph from East

Location: Caracas / Maiquetia Aerop. Intl. Simon Bolivar

Current Time: Jul 22, 2019 at 7:49:18 pm

Latest Report: Jul 22, 2019 at 7:00 pm


Visibility: N/A

Pressure: 29.86 "Hg (27.01 "Hg at 875m altitude)

Humidity: 89%

Dew Point: 73 °F

Location of CaracasLocation

Past Weather in Caracas — Graph

°F

Caracas Temperature Yesterday

Maximum temperature yesterday: 91 °F (at 1:00 pm)
Minimum temperature yesterday: 75 °F (at 11:00 pm)
Average temperature yesterday: 81 °F

High & Low Weather Summary for the Past Weeks

 TemperatureHumidityPressure
High91 °F (Jul 21, 1:00 pm)94% (Jul 8, 3:00 am)30.01 "Hg (Jul 8, 3:00 am)
Low73 °F (Jul 16, 2:00 am)52% (Jul 14, 3:00 pm)29.83 "Hg (Jul 9, 8:00 pm)
Average80 °F77%29.89 "Hg
* Reported Jul 7 7:00 pm — Jul 22 7:00 pm, Caracas. Weather by CustomWeather, © 2019

Note: Actual official high and low records may vary slightly from our data, if they occured in-between our weather recording intervals... More about our weather records

Advertising

Caracas Weather History for the Previous 24 Hours

Scroll right to see more
 ConditionsComfort  
Time TempWeatherWind HumidityBarometerVisibility
7:00 pm
Mon, Jul 22
77 °FPassing clouds.3 mph89%29.86 "HgN/A
6:00 pm77 °FScattered clouds.5 mph83%29.86 "HgN/A
5:00 pm81 °FScattered clouds.5 mph70%29.95 "HgN/A
4:00 pm81 °FScattered clouds.5 mph74%29.95 "HgN/A
3:00 pm86 °FScattered clouds.5 mph70%29.89 "HgN/A
2:03 pm86 °FScattered clouds.5 mph75%29.89 "HgN/A
1:00 pm82 °FScattered clouds.5 mph79%29.89 "HgN/A
12:14 pm82 °FScattered clouds.6 mph79%29.89 "HgN/A
11:00 am81 °FScattered clouds.2 mph74%29.89 "HgN/A
10:20 am81 °FScattered clouds.3 mph74%29.89 "HgN/A
9:00 am79 °FScattered clouds.2 mph79%29.86 "HgN/A
7:00 am77 °FScattered clouds.2 mph83%29.86 "HgN/A
6:03 am77 °FPassing clouds.3 mph89%29.83 "HgN/A
5:00 am77 °FPassing clouds.2 mph89%29.83 "HgN/A
4:00 am73 °FPassing clouds.1 mph94%29.83 "HgN/A
3:00 am73 °FPassing clouds.1 mph94%29.83 "HgN/A
2:00 am75 °FPassing clouds.2 mph94%29.83 "HgN/A
1:00 am75 °FPassing clouds.1 mph94%29.83 "HgN/A
12:01 am75 °FPassing clouds.2 mph78%29.83 "HgN/A
11:00 pm
Sun, Jul 21
75 °FPassing clouds.2 mph78%29.83 "HgN/A
10:00 pm77 °FPassing clouds.2 mph83%29.86 "HgN/A
9:00 pm77 °FPassing clouds.2 mph83%29.86 "HgN/A
8:28 pm77 °FPassing clouds.3 mph83%29.86 "HgN/A
7:00 pm79 °FPassing clouds.5 mph89%29.86 "HgN/A
Weather by CustomWeather, © 2019

See weather overview